This is the latest recevied weather packets stored in our database for station/object SP2WM. If no packets are shown the sender has not sent any weather packets the latest 10 day(s).
| Time | Temp. | Humidity | Pressure | Rain* | Wind** | Luminosity | Snow |
|---|---|---|---|---|---|---|---|
| 1777633232 | 21.11° C | 41% | 1024 hPa | 0 mm | - | - | - |
| 1777632036 | 21.67° C | 41% | 1024.1 hPa | 0 mm | - | - | - |
| 1777631438 | 21.67° C | 41% | 1024.2 hPa | 0 mm | - | - | - |
| 1777630235 | 21.11° C | 42% | 1024.3 hPa | 0 mm | - | - | - |
| 1777629635 | 20.56° C | 43% | 1024.3 hPa | 0 mm | - | - | - |
| 1777629036 | 20° C | 45% | 1024.4 hPa | 0 mm | - | - | - |
| 1777628435 | 18.89° C | 45% | 1024.4 hPa | 0 mm | - | - | - |
| 1777627838 | 19.44° C | 45% | 1024.4 hPa | 0 mm | - | - | - |
| 1777627239 | 18.89° C | 46% | 1024.5 hPa | 0 mm | - | - | - |
| 1777626639 | 17.78° C | 47% | 1024.5 hPa | 0 mm | - | - | - |
| 1777626019 | 17.22° C | 46% | 1024.6 hPa | 0 mm | - | - | - |
| 1777625423 | 16.67° C | 49% | 1024.5 hPa | 0 mm | - | - | - |
| 1777624823 | 17.22° C | 47% | 1024.6 hPa | 0 mm | - | - | - |
| 1777624225 | 17.22° C | 47% | 1024.6 hPa | 0 mm | - | - | - |
| 1777623628 | 16.67° C | 49% | 1024.6 hPa | 0 mm | - | - | - |
| 1777623033 | 17.22° C | 48% | 1024.5 hPa | 0 mm | - | - | - |
| 1777622432 | 16.11° C | 50% | 1024.5 hPa | 0 mm | - | - | - |
| 1777621831 | 16.11° C | 48% | 1024.5 hPa | 0 mm | - | - | - |
| 1777621231 | 16.11° C | 49% | 1024.5 hPa | 0 mm | - | - | - |
| 1777620631 | 16.11° C | 50% | 1024.5 hPa | 0 mm | - | - | - |
| 1777620037 | 15.56° C | 52% | 1024.5 hPa | 0 mm | - | - | - |
| 1777619436 | 15.56° C | 52% | 1024.5 hPa | 0 mm | - | - | - |
| 1777618836 | 16.11° C | 51% | 1024.5 hPa | 0 mm | - | - | - |
| 1777618236 | 15.56° C | 53% | 1024.5 hPa | 0 mm | - | - | - |
| 1777617638 | 15° C | 54% | 1024.3 hPa | 0 mm | - | - | - |
* Rain latest hour (hover to see other rain measurements)
** Current wind speed in m/s (hover to see current wind gust speed)